Flag for Australia

Past Weather in Port Macquarie, New South Wales, Australia — Yesterday and Last 2 Weeks

Now
52 °F

Overcast.


Feels Like: 48 °F
Forecast: 62 / 47 °F
Wind: 12 mph from West

Location: Port Macquarie Airport

Current Time: Jul 14, 2020 at 6:59:18 am

Latest Report: Jul 14, 2020 at 6:00 am


Visibility: N/A

Pressure: 29.86 "Hg

Humidity: 60%

Dew Point: 39 °F

Location of Port MacquarieLocation

Past Weather in Port Macquarie — Graph

°F

Port Macquarie Temperature Yesterday

Maximum temperature yesterday: 63 °F (at 2:00 pm)
Minimum temperature yesterday: 43 °F (at 5:00 am)
Average temperature yesterday: 53 °F

High & Low Weather Summary for the Past Weeks

 TemperatureHumidityPressure
High73 °F (Jul 2, 3:00 pm)98% (Jul 3, 11:00 pm)30.45 "Hg (Jul 3, 11:00 pm)
Low34 °F (Jul 5, 5:00 am)35% (Jul 1, 2:00 pm)29.87 "Hg (Jul 14, 5:00 am)
Average55 °F80%30.19 "Hg
* Reported Jun 29 5:00 am — Jul 14 5:00 am, Port Macquarie. Weather by CustomWeather, © 2020

Note: Actual official high and low records may vary slightly from our data, if they occured in-between our weather recording intervals... More about our weather records

Port Macquarie Weather History for the Previous 24 Hours

Scroll right to see more
 ConditionsComfort  
Time TempWeatherWind HumidityBarometerVisibility
5:00 am
Tue, Jul 14
51 °FCool.10 mph61%29.87 "HgN/A
3:00 am50 °FOvercast.10 mph64%29.90 "HgN/A
2:00 am51 °FCool.13 mph64%29.93 "HgN/A
12:00 am50 °FPassing clouds.8 mph71%29.96 "HgN/A
11:00 pm
Mon, Jul 13
50 °FCool.12 mph72%29.99 "HgN/A
9:00 pm54 °FOvercast.12 mph66%30.02 "HgN/A
8:00 pm50 °FCool.7 mph89%30.02 "HgN/A
6:00 pm50 °FCool.6 mph87%30.00 "HgN/A
5:00 pm56 °FCool.6 mph67%29.99 "HgN/A
3:00 pm62 °FRefreshingly cool.10 mph55%29.98 "HgN/A
2:00 pm63 °FMild.8 mph50%29.98 "HgN/A
12:00 pm62 °FMild.6 mph51%30.02 "HgN/A
11:00 am60 °FRefreshingly cool.3 mph54%30.04 "HgN/A
9:00 am54 °FCool.6 mph76%30.07 "HgN/A
8:00 am49 °FCool.6 mph88%30.07 "HgN/A
6:00 am43 °FQuite cool.5 mph98%30.04 "HgN/A
Weather by CustomWeather, © 2020

See weather overview